Погода в Красногвардейском

Россия / Ставропольский край     45°50′42″N   41°30′51″E
темп.,
°C
ветер,
м/с
пор.,
м/с
влажн.,
%
обл.,
%
осадки,
мм/ч
давл.,
гПа
погр.,
м
18 января, пн
пн1800:00−2в81295100 4.6 1006458
03:00−3в61093100 6.5 1006412
06:00−2юв5895100 0.3 1009248
09:00−5зюз81291100 0.4 1012503
12:00−5з7109199 0.1 1013494
15:00−5зсз5989100 0.1 1014570
18:00−6з4792100 0.0 1017516
21:00−6з4792100 0.1 1018338
19 января, вт
вт1900:00−7зсз3794100 0.0 1019231
03:00−8з339598 0.0 102071
06:00−10юз129515 0.0 102021
09:00−7юв239352 0.0 102090
12:00−2ююз4889100 0.4 1020744
15:00−5з5982100 0.4 10191066
18:00−7зюз3692100 0.0 1022154
21:00−9зюз2296100 0.1 102337
20 января, ср
ср2000:00−10зсз3496100 0.1 1024128
03:00−12з229486 0.1 102421
06:00−13з229453 0.0 102521
09:00−11зсз119276 0.0 102653
12:00−8з2388100 0.0 1026299
15:00−6сз238899 0.0 1025404
18:00−10ссв0195100 0.0 102821
21:00−10ююз0195100 0.0 102921
21 января, чт
чт2100:00−11зюз119692 0.0 102921
03:00−12з119569 0.0 103021
06:00−10вюв129682 0.1 103022
09:00−8вюв229691 0.3 103079
12:00−4вюв229182 0.1 1030242
15:00−2юв229189 0.1 1029303
18:00−3юв349689 0.1 1030123
21:00−1ю349694 0.9 1030113
22 января, пт
пт2200:00−3ю349188 0.0 102966
03:00−2ююз368394 0.0 102994
06:00−3ююз347898 0.0 102864
09:00−2ююз347766 0.0 102962
12:00+1ююз24920 0.0 1028102
15:00+2ю12900 0.0 102722
18:000юв12770 0.0 102722
21:00−1юв23750 0.0 102722